Time,TemperatureF,DewpointF,PressureIn,WindDirection,WindDirectionDegrees,WindSpeedMPH,WindSpeedGustMPH,Humidity,HourlyPrecipIn,Conditions,Clouds,dailyrainin,SoftwareType,DateUTC
2013-01-19 00:07:00,69.8,59.2,30.02,East,90,4.7,-999.0,69,-99.99,,,0.00,Acu-Link.com,2013-01-19 05:07:00,
2013-01-19 00:22:00,69.8,59.2,30.03,ESE,112,3.7,-999.0,69,-99.99,,,0.00,Acu-Link.com,2013-01-19 05:22:00,
2013-01-19 00:37:00,70.0,59.8,30.02,ESE,112,8.3,-999.0,70,-99.99,,,0.00,Acu-Link.com,2013-01-19 05:37:00,
2013-01-19 00:52:00,69.8,60.0,30.03,ESE,112,5.3,-999.0,71,-99.99,,,0.00,Acu-Link.com,2013-01-19 05:52:00,
2013-01-19 01:07:00,69.8,60.0,30.02,ESE,112,4.7,-999.0,71,-99.99,,,0.00,Acu-Link.com,2013-01-19 06:07:00,
2013-01-19 01:22:00,69.8,60.4,30.02,ESE,112,4.7,-999.0,72,-99.99,,,0.00,Acu-Link.com,2013-01-19 06:22:00,
2013-01-19 01:37:00,69.8,60.4,30.01,ESE,112,5.3,-999.0,72,-99.99,,,0.00,Acu-Link.com,2013-01-19 06:37:00,
2013-01-19 01:52:00,69.8,60.7,30.01,East,90,5.3,-999.0,73,-99.99,,,0.00,Acu-Link.com,2013-01-19 06:52:00,
2013-01-19 02:07:00,69.8,60.7,30.00,ESE,112,3.2,-999.0,73,-99.99,,,0.00,Acu-Link.com,2013-01-19 07:07:00,
2013-01-19 02:23:00,69.8,60.7,30.00,ESE,112,3.7,-999.0,73,-99.99,,,0.00,Acu-Link.com,2013-01-19 07:23:00,
2013-01-19 02:38:00,69.8,60.7,30.00,ESE,112,5.3,-999.0,73,-99.99,,,0.00,Acu-Link.com,2013-01-19 07:38:00,
2013-01-19 02:53:00,69.8,60.7,30.00,ESE,112,3.2,-999.0,73,-99.99,,,0.00,Acu-Link.com,2013-01-19 07:53:00,
2013-01-19 03:08:00,69.8,61.1,29.99,ENE,67,2.7,-999.0,74,-99.99,,,0.00,Acu-Link.com,2013-01-19 08:08:00,
2013-01-19 03:23:00,69.6,60.9,29.99,ESE,112,2.2,-999.0,74,-99.99,,,0.00,Acu-Link.com,2013-01-19 08:23:00,
2013-01-19 03:38:00,69.6,60.9,29.99,East,90,3.2,-999.0,74,-99.99,,,0.00,Acu-Link.com,2013-01-19 08:38:00,
2013-01-19 03:53:00,69.6,60.9,29.99,East,90,2.7,-999.0,74,-99.99,,,0.00,Acu-Link.com,2013-01-19 08:53:00,
2013-01-19 04:36:00,69.8,61.1,30.00,ENE,67,3.7,-999.0,74,-99.99,,,0.00,Acu-Link.com,2013-01-19 09:36:00,
2013-01-19 04:51:00,70.0,60.5,29.99,ESE,112,3.7,-999.0,72,-99.99,,,0.00,Acu-Link.com,2013-01-19 09:51:00,
2013-01-19 05:06:00,70.0,60.5,29.99,ESE,112,1.7,-999.0,72,-99.99,,,0.00,Acu-Link.com,2013-01-19 10:06:00,
2013-01-19 05:21:00,69.8,60.4,29.99,NE,45,2.2,-999.0,72,-99.99,,,0.00,Acu-Link.com,2013-01-19 10:21:00,
2013-01-19 05:51:00,69.4,60.4,29.99,NE,45,1.7,-999.0,73,-99.99,,,0.00,Acu-Link.com,2013-01-19 10:51:00,
2013-01-19 06:06:00,69.4,60.7,30.00,NE,45,1.7,-999.0,74,-99.99,,,0.00,Acu-Link.com,2013-01-19 11:06:00,
2013-01-19 07:57:00,70.9,63.7,30.03,NE,45,0.0,-999.0,78,-99.99,,,0.00,Acu-Link.com,2013-01-19 12:57:00,
2013-01-19 08:12:00,70.2,63.4,30.03,NW,315,1.7,-999.0,79,-99.99,,,0.00,Acu-Link.com,2013-01-19 13:12:00,
2013-01-19 08:27:00,70.0,63.9,30.03,NW,315,2.2,-999.0,81,-99.99,,,0.00,Acu-Link.com,2013-01-19 13:27:00,
2013-01-19 08:42:00,69.6,63.9,30.04,NW,315,0.0,-999.0,82,-99.99,,,0.00,Acu-Link.com,2013-01-19 13:42:00,
2013-01-19 08:57:00,69.1,63.7,30.05,NW,315,2.7,-999.0,83,-99.99,,,0.00,Acu-Link.com,2013-01-19 13:57:00,
2013-01-19 09:12:00,67.8,64.4,30.05,WNW,292,2.2,-999.0,89,-99.99,,,0.00,Acu-Link.com,2013-01-19 14:12:00,
2013-01-19 09:27:00,66.2,64.4,30.07,SSW,202,8.3,-999.0,94,-99.99,,,0.00,Acu-Link.com,2013-01-19 14:27:00,
2013-01-19 09:42:00,65.1,64.2,30.08,SSW,202,3.7,-999.0,97,-99.99,,,0.05,Acu-Link.com,2013-01-19 14:42:00,
2013-01-19 09:57:00,64.9,64.3,30.08,SW,225,3.2,-999.0,98,-99.99,,,0.08,Acu-Link.com,2013-01-19 14:57:00,
2013-01-19 10:13:00,65.3,64.7,30.08,West,270,4.2,-999.0,98,-99.99,,,0.09,Acu-Link.com,2013-01-19 15:13:00,
2013-01-19 10:28:00,65.8,65.2,30.07,WSW,247,1.7,-999.0,98,-99.99,,,0.09,Acu-Link.com,2013-01-19 15:28:00,
2013-01-19 10:43:00,66.4,65.8,30.06,WSW,247,2.2,-999.0,98,-99.99,,,0.12,Acu-Link.com,2013-01-19 15:43:00,
2013-01-19 10:59:00,67.1,66.5,30.06,WSW,247,2.2,-999.0,98,-99.99,,,0.12,Acu-Link.com,2013-01-19 15:59:00,
2013-01-19 11:14:00,67.8,66.9,30.06,WSW,247,0.0,-999.0,97,-99.99,,,0.12,Acu-Link.com,2013-01-19 16:14:00,
2013-01-19 11:29:00,68.4,67.2,30.06,WSW,247,2.2,-999.0,96,-99.99,,,0.12,Acu-Link.com,2013-01-19 16:29:00,
2013-01-19 11:44:00,68.9,67.4,30.05,WSW,247,1.7,-999.0,95,-99.99,,,0.15,Acu-Link.com,2013-01-19 16:44:00,
2013-01-19 11:59:00,70.2,68.4,30.04,ESE,112,1.7,-999.0,94,-99.99,,,0.16,Acu-Link.com,2013-01-19 16:59:00,
2013-01-19 12:14:00,69.8,67.7,30.02,ESE,112,0.0,-999.0,93,-99.99,,,0.16,Acu-Link.com,2013-01-19 17:14:00,
2013-01-19 12:29:00,69.4,67.0,30.02,NE,45,1.7,-999.0,92,-99.99,,,0.16,Acu-Link.com,2013-01-19 17:29:00,
2013-01-19 12:44:00,70.9,67.5,30.02,NE,45,2.7,-999.0,89,-99.99,,,0.16,Acu-Link.com,2013-01-19 17:44:00,
2013-01-19 12:59:00,70.9,67.8,30.01,NE,45,0.0,-999.0,90,-99.99,,,0.17,Acu-Link.com,2013-01-19 17:59:00,
2013-01-19 13:30:00,71.1,68.0,29.99,NNE,22,2.7,-999.0,90,-99.99,,,0.21,Acu-Link.com,2013-01-19 18:30:00,
2013-01-19 13:45:00,69.4,67.9,29.98,NNE,22,1.1,-999.0,95,-99.99,,,0.22,Acu-Link.com,2013-01-19 18:45:00,
2013-01-19 14:00:00,70.2,68.4,29.97,ENE,67,2.7,-999.0,94,-99.99,,,0.22,Acu-Link.com,2013-01-19 19:00:00,
2013-01-19 14:45:00,71.8,68.7,29.97,NNW,337,1.1,-999.0,90,-99.99,,,0.23,Acu-Link.com,2013-01-19 19:45:00,
2013-01-19 15:01:00,71.1,68.7,29.97,WNW,292,2.2,-999.0,92,-99.99,,,0.23,Acu-Link.com,2013-01-19 20:01:00,
2013-01-19 15:31:00,68.4,67.8,29.97,NE,45,3.2,-999.0,98,-99.99,,,0.30,Acu-Link.com,2013-01-19 20:31:00,
2013-01-19 16:47:00,69.3,67.2,29.96,NNE,22,0.0,-999.0,93,-99.99,,,0.32,Acu-Link.com,2013-01-19 21:47:00,
2013-01-19 17:02:00,69.1,67.0,29.96,NE,45,0.0,-999.0,93,-99.99,,,0.32,Acu-Link.com,2013-01-19 22:02:00,
2013-01-19 17:48:00,68.4,67.2,29.96,NE,45,3.7,-999.0,96,-99.99,,,0.32,Acu-Link.com,2013-01-19 22:48:00,
2013-01-19 18:18:00,67.5,67.2,29.97,NE,45,4.7,-999.0,99,-99.99,,,0.32,Acu-Link.com,2013-01-19 23:18:00,
2013-01-19 18:33:00,67.3,67.0,29.97,NE,45,5.3,-999.0,99,-99.99,,,0.32,Acu-Link.com,2013-01-19 23:33:00,
2013-01-19 19:19:00,67.1,66.8,29.98,NE,45,4.2,-999.0,99,-99.99,,,0.32,Acu-Link.com,2013-01-20 00:19:00,
2013-01-19 19:34:00,67.1,66.8,29.98,NNE,22,2.2,-999.0,99,-99.99,,,0.32,Acu-Link.com,2013-01-20 00:34:00,
2013-01-19 19:49:00,67.1,66.8,29.97,NNE,22,3.2,-999.0,99,-99.99,,,0.32,Acu-Link.com,2013-01-20 00:49:00,
2013-01-19 20:04:00,67.1,66.8,29.98,NNE,22,2.7,-999.0,99,-99.99,,,0.32,Acu-Link.com,2013-01-20 01:04:00,
2013-01-19 20:19:00,67.1,66.8,29.98,NNE,22,2.2,-999.0,99,-99.99,,,0.32,Acu-Link.com,2013-01-20 01:19:00,
2013-01-19 20:35:00,67.5,67.2,29.98,North,0,3.7,-999.0,99,-99.99,,,0.32,Acu-Link.com,2013-01-20 01:35:00,
2013-01-19 20:50:00,67.1,66.8,29.98,NE,45,3.2,-999.0,99,-99.99,,,0.32,Acu-Link.com,2013-01-20 01:50:00,
2013-01-19 21:05:00,67.1,66.8,29.99,WNW,292,1.7,-999.0,99,-99.99,,,0.32,Acu-Link.com,2013-01-20 02:05:00,
2013-01-19 21:20:00,66.7,66.4,29.98,NW,315,2.7,-999.0,99,-99.99,,,0.32,Acu-Link.com,2013-01-20 02:20:00,
2013-01-19 21:35:00,66.6,66.3,29.99,NW,315,2.7,-999.0,99,-99.99,,,0.32,Acu-Link.com,2013-01-20 02:35:00,
2013-01-19 21:50:00,66.6,66.3,29.98,NW,315,1.7,-999.0,99,-99.99,,,0.32,Acu-Link.com,2013-01-20 02:50:00,
2013-01-19 22:05:00,66.6,66.3,29.98,NW,315,2.2,-999.0,99,-99.99,,,0.32,Acu-Link.com,2013-01-20 03:05:00,
2013-01-19 22:20:00,66.4,66.1,29.98,NW,315,1.7,-999.0,99,-99.99,,,0.32,Acu-Link.com,2013-01-20 03:20:00,
2013-01-19 22:51:00,66.0,65.7,29.97,NW,315,2.2,-999.0,99,-99.99,,,0.32,Acu-Link.com,2013-01-20 03:51:00,
2013-01-19 23:06:00,66.0,65.7,29.97,NW,315,1.7,-999.0,99,-99.99,,,0.32,Acu-Link.com,2013-01-20 04:06:00,